TimeEST,TemperatureF,Dew PointF,Humidity,Sea Level PressureIn,VisibilityMPH,Wind Direction,Wind SpeedMPH,Gust SpeedMPH,PrecipitationIn,Events,Conditions,WindDirDegrees,DateUTC
12:53 AM,9.0,-4.0,56,30.36,10.0,Calm,Calm,-,N/A,,Clear,0,2014-01-30 05:53:00
1:53 AM,3.9,-6.0,64,30.37,10.0,Calm,Calm,-,N/A,,Clear,0,2014-01-30 06:53:00
2:53 AM,9.0,-4.0,56,30.39,10.0,Calm,Calm,-,N/A,,Clear,0,2014-01-30 07:53:00
3:53 AM,5.0,-5.1,63,30.40,10.0,Calm,Calm,-,N/A,,Clear,0,2014-01-30 08:53:00
4:53 AM,3.0,-6.0,66,30.41,10.0,Calm,Calm,-,N/A,,Clear,0,2014-01-30 09:53:00
5:53 AM,1.0,-6.0,72,30.43,10.0,Calm,Calm,-,N/A,,Clear,0,2014-01-30 10:53:00
6:53 AM,-0.9,-5.1,83,30.45,8.0,Calm,Calm,-,N/A,,Clear,0,2014-01-30 11:53:00
7:53 AM,1.9,-4.0,76,30.46,5.0,Calm,Calm,-,N/A,,Haze,0,2014-01-30 12:53:00
8:53 AM,5.0,-2.0,73,30.48,5.0,Calm,Calm,-,N/A,,Haze,0,2014-01-30 13:53:00
9:53 AM,10.0,-2.0,58,30.49,6.0,Calm,Calm,-,N/A,,Haze,0,2014-01-30 14:53:00
10:53 AM,14.0,1.0,56,30.47,8.0,Calm,Calm,-,N/A,,Clear,0,2014-01-30 15:53:00
11:53 AM,19.0,1.0,46,30.44,10.0,Calm,Calm,-,N/A,,Clear,0,2014-01-30 16:53:00
12:53 PM,19.9,3.0,48,30.40,9.0,East,4.6,-,N/A,,Clear,100,2014-01-30 17:53:00
1:53 PM,21.9,3.0,44,30.37,10.0,ESE,8.1,-,N/A,,Clear,120,2014-01-30 18:53:00
2:53 PM,23.0,3.9,44,30.35,10.0,ESE,8.1,-,N/A,,Clear,120,2014-01-30 19:53:00
3:53 PM,24.1,3.9,42,30.32,10.0,SE,8.1,-,N/A,,Clear,130,2014-01-30 20:53:00
4:53 PM,21.9,3.9,46,30.30,10.0,SE,11.5,-,N/A,,Clear,140,2014-01-30 21:53:00
5:53 PM,19.9,1.9,46,30.30,10.0,SSE,6.9,-,N/A,,Clear,160,2014-01-30 22:53:00
6:53 PM,18.0,1.9,50,30.27,10.0,SSE,8.1,-,N/A,,Clear,150,2014-01-30 23:53:00
7:53 PM,18.0,1.0,48,30.27,10.0,SE,3.5,-,N/A,,Clear,130,2014-01-31 00:53:00
8:53 PM,17.1,1.0,50,30.26,10.0,SE,3.5,-,N/A,,Clear,130,2014-01-31 01:53:00
9:53 PM,15.1,1.0,54,30.25,10.0,SE,5.8,-,N/A,,Clear,130,2014-01-31 02:53:00
10:53 PM,17.1,5.0,59,30.20,10.0,SE,9.2,-,N/A,,Clear,140,2014-01-31 03:53:00
11:53 PM,15.1,5.0,64,30.19,10.0,NE,3.5,-,N/A,,Clear,50,2014-01-31 04:53:00